• In Uzbekistan
  • List of Countries
  • For 7 days
  • Water Temperature
  • Satellite Maps
  • Weather Map
  • Weather Widgets
  • user-avatar
    Login

    Hourly Weather Barra

    Today, 17 January, Tuesday

    Time Temperature Precipitation Wind Pressure Humidity
    00:00 +25°C° 0.2 mm 1 mps 747 mmHg 97%
    01:00 +25°C° 0.2 mm 1 mps 747 mmHg 97%
    02:00 +25°C° 0 mm 1 mps 747 mmHg 97%
    03:00 +25°C° 0 mm 1 mps 747 mmHg 96%
    04:00 +25°C° 0 mm 1 mps 747 mmHg 96%
    05:00 +25°C° 0 mm 1 mps 747 mmHg 94%
    06:00 +26°C° 0 mm 1 mps 747 mmHg 92%
    07:00 +26°C° 0 mm 1 mps 748 mmHg 90%
    08:00 +28°C° 0 mm 1 mps 748 mmHg 82%
    09:00 +30°C° 0 mm 2 mps 748 mmHg 73%
    10:00 +32°C° 0 mm 2 mps 748 mmHg 65%
    11:00 +32°C° 0.3 mm 2 mps 748 mmHg 65%
    12:00 +33°C° 0.3 mm 3 mps 747 mmHg 65%
    13:00 +34°C° 0.3 mm 3 mps 747 mmHg 65%
    14:00 +33°C° 0.2 mm 3 mps 747 mmHg 66%
    15:00 +33°C° 0.2 mm 4 mps 746 mmHg 66%
    16:00 +33°C° 0.2 mm 4 mps 746 mmHg 66%
    17:00 +30°C° 0.2 mm 3 mps 746 mmHg 73%
    18:00 +29°C° 0.2 mm 3 mps 747 mmHg 79%
    19:00 +27°C° 0.2 mm 3 mps 747 mmHg 86%
    20:00 +27°C° 0.4 mm 2 mps 748 mmHg 89%
    21:00 +26°C° 0.4 mm 2 mps 748 mmHg 91%
    22:00 +26°C° 0.4 mm 2 mps 748 mmHg 93%
    23:00 +26°C° 0.5 mm 2 mps 748 mmHg 92%

    Tomorrow, 18 January, Wednesday

    Time Temperature Precipitation Wind Pressure Humidity
    00:00 +26°C° 0.5 mm 2 mps 748 mmHg 92%
    01:00 +26°C° 0.5 mm 2 mps 748 mmHg 91%
    02:00 +26°C° 0 mm 2 mps 748 mmHg 92%
    03:00 +26°C° 0 mm 2 mps 747 mmHg 93%
    04:00 +25°C° 0 mm 2 mps 747 mmHg 93%
    05:00 +26°C° 0 mm 2 mps 747 mmHg 92%
    06:00 +26°C° 0 mm 2 mps 748 mmHg 90%
    07:00 +27°C° 0 mm 2 mps 748 mmHg 88%
    08:00 +28°C° 0.1 mm 2 mps 748 mmHg 81%
    09:00 +30°C° 0.1 mm 2 mps 748 mmHg 74%
    10:00 +31°C° 0.1 mm 3 mps 749 mmHg 67%
    11:00 +33°C° 0.2 mm 3 mps 748 mmHg 65%
    12:00 +33°C° 0.2 mm 3 mps 748 mmHg 64%
    13:00 +34°C° 0.2 mm 4 mps 747 mmHg 62%
    14:00 +34°C° 0.1 mm 4 mps 747 mmHg 62%
    15:00 +33°C° 0.1 mm 3 mps 746 mmHg 63%
    16:00 +33°C° 0.1 mm 3 mps 746 mmHg 63%
    17:00 +30°C° 0 mm 3 mps 746 mmHg 72%
    18:00 +29°C° 0 mm 2 mps 746 mmHg 81%
    19:00 +27°C° 0 mm 2 mps 746 mmHg 90%
    20:00 +26°C° 0 mm 1 mps 747 mmHg 92%
    21:00 +25°C° 0 mm 1 mps 747 mmHg 94%
    22:00 +24°C° 0 mm 1 mps 748 mmHg 97%
    23:00 +24°C° 0 mm 1 mps 748 mmHg 97%

    Day after tomorrow, 19 January, Thursday

    Time Temperature Precipitation Wind Pressure Humidity
    00:00 +24°C° 0 mm 1 mps 747 mmHg 97%
    01:00 +24°C° 0 mm 1 mps 747 mmHg 97%
    02:00 +24°C° 0 mm 1 mps 747 mmHg 96%
    03:00 +24°C° 0 mm 1 mps 747 mmHg 96%
    04:00 +24°C° 0 mm 2 mps 746 mmHg 95%
    05:00 +25°C° 0 mm 2 mps 747 mmHg 92%
    06:00 +25°C° 0 mm 2 mps 747 mmHg 89%
    07:00 +26°C° 0 mm 2 mps 748 mmHg 86%
    08:00 +28°C° 0 mm 2 mps 748 mmHg 76%
    09:00 +31°C° 0 mm 2 mps 748 mmHg 66%
    10:00 +34°C° 0 mm 2 mps 748 mmHg 56%
    11:00 +35°C° 0 mm 2 mps 747 mmHg 51%
    12:00 +36°C° 0 mm 2 mps 746 mmHg 45%
    13:00 +36°C° 0 mm 2 mps 746 mmHg 40%
    14:00 +36°C° 0 mm 2 mps 745 mmHg 42%
    15:00 +36°C° 0 mm 3 mps 745 mmHg 43%
    16:00 +35°C° 0 mm 3 mps 744 mmHg 45%
    17:00 +32°C° 0 mm 2 mps 744 mmHg 58%
    18:00 +29°C° 0 mm 2 mps 745 mmHg 71%
    19:00 +27°C° 0 mm 2 mps 745 mmHg 84%
    20:00 +26°C° 0 mm 2 mps 745 mmHg 87%
    21:00 +25°C° 0 mm 1 mps 746 mmHg 91%
    22:00 +24°C° 0 mm 1 mps 746 mmHg 94%
    23:00 +24°C° 0 mm 1 mps 746 mmHg 94%

    20 January, Friday

    Time Temperature Precipitation Wind Pressure Humidity
    00:00 +23°C° 0 mm 1 mps 746 mmHg 94%
    01:00 +23°C° 0 mm 1 mps 745 mmHg 95%
    02:00 +23°C° 0 mm 1 mps 745 mmHg 95%
    03:00 +20°C° 0 mm 0 mps 745 mmHg 95%
    04:00 +20°C° 0 mm 0 mps 745 mmHg 96%
    05:00 +21°C° 0 mm 0 mps 745 mmHg 92%
    06:00 +22°C° 0 mm 0 mps 746 mmHg 89%
    07:00 +24°C° 0 mm 0 mps 746 mmHg 86%
    08:00 +28°C° 0 mm 1 mps 746 mmHg 73%
    09:00 +31°C° 0 mm 1 mps 747 mmHg 60%
    10:00 +34°C° 0 mm 1 mps 747 mmHg 47%
    11:00 +35°C° 0 mm 1 mps 746 mmHg 42%
    12:00 +35°C° 0 mm 1 mps 746 mmHg 37%
    13:00 +37°C° 0 mm 2 mps 745 mmHg 33%
    14:00 +36°C° 0 mm 2 mps 745 mmHg 35%
    15:00 +35°C° 0 mm 2 mps 744 mmHg 38%
    16:00 +35°C° 0 mm 3 mps 744 mmHg 41%
    17:00 +31°C° 0 mm 2 mps 744 mmHg 53%
    18:00 +28°C° 0 mm 2 mps 745 mmHg 65%
    19:00 +26°C° 0 mm 2 mps 745 mmHg 78%
    20:00 +25°C° 0 mm 2 mps 746 mmHg 82%
    21:00 +24°C° 0 mm 1 mps 746 mmHg 87%
    22:00 +23°C° 0 mm 1 mps 746 mmHg 92%
    23:00 +23°C° 0 mm 1 mps 746 mmHg 90%

    21 January, Saturday

    Time Temperature Precipitation Wind Pressure Humidity
    00:00 +23°C° 0 mm 1 mps 746 mmHg 88%
    01:00 +23°C° 0 mm 1 mps 745 mmHg 87%
    02:00 +23°C° 0 mm 2 mps 745 mmHg 84%
    03:00 +23°C° 0 mm 2 mps 745 mmHg 82%
    04:00 +23°C° 0 mm 2 mps 745 mmHg 79%
    05:00 +24°C° 0 mm 1 mps 745 mmHg 76%
    06:00 +24°C° 0 mm 1 mps 746 mmHg 73%
    07:00 +25°C° 0 mm 1 mps 746 mmHg 70%
    08:00 +28°C° 0 mm 1 mps 746 mmHg 61%
    09:00 +32°C° 0 mm 1 mps 747 mmHg 52%
    10:00 +33°C° 0 mm 0 mps 747 mmHg 43%
    11:00 +36°C° 0 mm 1 mps 746 mmHg 41%
    12:00 +37°C° 0 mm 2 mps 745 mmHg 39%
    13:00 +38°C° 0 mm 2 mps 745 mmHg 37%
    14:00 +37°C° 0 mm 2 mps 744 mmHg 40%
    15:00 +37°C° 0 mm 3 mps 744 mmHg 43%
    16:00 +36°C° 0 mm 3 mps 743 mmHg 45%
    17:00 +34°C° 0 mm 3 mps 744 mmHg 56%
    18:00 +30°C° 0 mm 3 mps 744 mmHg 66%
    19:00 +28°C° 0 mm 2 mps 745 mmHg 77%
    20:00 +27°C° 0 mm 2 mps 745 mmHg 79%
    21:00 +26°C° 0 mm 2 mps 745 mmHg 82%
    22:00 +26°C° 0 mm 2 mps 745 mmHg 85%
    23:00 +25°C° 0 mm 2 mps 745 mmHg 84%

    22 January, Sunday

    Time Temperature Precipitation Wind Pressure Humidity
    00:00 +25°C° 0 mm 2 mps 745 mmHg 84%
    01:00 +25°C° 0 mm 2 mps 744 mmHg 83%
    02:00 +24°C° 0 mm 2 mps 744 mmHg 83%
    03:00 +24°C° 0 mm 1 mps 744 mmHg 82%
    04:00 +24°C° 0 mm 1 mps 744 mmHg 81%
    05:00 +25°C° 0 mm 1 mps 745 mmHg 78%
    06:00 +27°C° 0 mm 1 mps 745 mmHg 74%
    07:00 +28°C° 0 mm 1 mps 746 mmHg 71%
    08:00 +31°C° 0 mm 1 mps 746 mmHg 62%
    09:00 +33°C° 0 mm 1 mps 746 mmHg 54%
    10:00 +36°C° 0 mm 1 mps 746 mmHg 45%
    11:00 +37°C° 0 mm 2 mps 745 mmHg 45%
    12:00 +37°C° 0 mm 3 mps 745 mmHg 45%
    13:00 +38°C° 0 mm 3 mps 744 mmHg 44%
    14:00 +37°C° 0 mm 4 mps 744 mmHg 49%
    15:00 +36°C° 0 mm 4 mps 744 mmHg 54%
    16:00 +35°C° 0 mm 4 mps 743 mmHg 59%
    17:00 +33°C° 0 mm 3 mps 744 mmHg 67%
    18:00 +30°C° 0 mm 3 mps 744 mmHg 75%
    19:00 +28°C° 0 mm 3 mps 745 mmHg 83%
    20:00 +27°C° 0 mm 3 mps 745 mmHg 87%
    21:00 +27°C° 0 mm 3 mps 745 mmHg 90%
    22:00 +26°C° 0 mm 3 mps 746 mmHg 94%
    23:00 +26°C° 0 mm 2 mps 746 mmHg 95%
    Show more